User: anonymous   Login
Location: Newark
(46.3567°N, 6.1428°E)
Time: 19:38:30
(UTC+00:00)
Language:

BEESAT 2 - Orbit

View from above orbital plane
View from above orbital plane
View from above satellite
View from above satellite

Ground track
Ground track

The orbit data is extracted from the following two-line orbital elements,

1 39136U 13015G   19265.83429467  .00000532  00000-0  36651-4 0  9993
2 39136  64.8682  92.6742 0025638 303.1474  56.7192 15.17023528354752
Epoch (UTC): 22 September 2019 20:01:23
Eccentricity: 0.0025638
inclination: 64.8682°
perigee height: 497 km
apogee height: 532 km
right ascension of ascending node: 92.6742°
argument of perigee: 303.1474°
revolutions per day: 15.17023528
mean anomaly at epoch: 56.7192°
orbit number at epoch: 35475

The dashed part of the orbit path shows where the satellite is in the earth's shadow,  

DLR